Weather in Gandía

Spain     38°57′42″N   0°11′10″E
temp.,
°C
wind,
m/s
gust,
m/s
humid.,
%
clouds,
%
prec.,
mm/h
press.,
hPa
HPBL,
m
28 february, sun
sun2801:00+7w119515 0.0 102426
04:00+8wnw129694 0.1 102350
07:00+9wnw019697 0.1 102331
10:00+12e367486 0.3 1024843
13:00+14e566867 0.5 1024985
16:00+14e467061 0.2 1022902
19:00+11ene358972 0.4 1022344
22:00+10ene359386 0.3 1024278
1 march, mon
mon101:00+10ene239675 0.7 102482
04:00+10ene369593 0.5 1022309
07:00+10ene359396 0.9 1023293
10:00+12ene588597 0.3 1024690
13:00+12ne468399 0.4 1024577
16:00+11nne3588100 0.3 1022436
19:00+11ne2692100 0.6 1023371
22:00+11ne4793100 0.1 1024478
2 march, tue
tue201:00+11ne4795100 0.4 1024402
04:00+12ne3696100 0.4 1023343
07:00+11nne4697100 0.9 1024384
10:00+12ne4592100 0.6 1026377
13:00+13ne3592100 0.9 1026394
16:00+13ne4591100 0.1 1025393
19:00+12nne2597100 0.3 1027286
22:00+12nne1398100 0.2 1029216
3 march, wed
wed301:00+12nnw259899 0.4 1029270
04:00+11nnw1296100 0.1 1028165
07:00+11nw1194100 0.1 1028103
10:00+12nnw2386100 0.1 1028339
13:00+14nne3480100 0.1 1028624
16:00+14nne3477100 0.1 1026614
19:00+11n119289 0.3 102622
22:00+10ne019453 0.0 102623
4 march, thu
thu401:00+9w119750 0.1 102531
04:00+9wnw129657 0.1 102330
07:00+8w129648 0.1 102228
10:00+13nw127846 0.0 1022452
13:00+16ene325742 0.0 1020958
16:00+15e33650 0.0 1018483
19:00+10e22930 0.0 101732
22:00+9w11930 0.0 101824